Home > Weather > Elizabeth > Past weeks

Flag for USA Past Weather in Elizabeth, New Jersey, USA — Yesterday and Last 2 Weeks

Now
86 °F

Scattered clouds.


Feels Like: 89 °F
Forecast: 74 / 94 °F
Wind: 10 mph from Northwest

Location: Newark International Airport

Current Time: Jul 26, 2016 at 12:10:07 PM

Latest Report: Jul 26, 2016 at 10:51 AM


Visibility: 10 mi

Pressure: 29.91 "Hg

Humidity: 53%

Dew Point: 67 °F

Location of ElizabethLocation

Past Weather in Elizabeth — Graph

°F

Elizabeth Temperature Yesterday

Maximum temperature yesterday: 97 °F (at 3:51 PM)
Minimum temperature yesterday: 75 °F (at 5:56 PM)
Average temperature yesterday: 82 °F

High & Low Weather Summary for the Past Weeks

 TemperatureHumidityPressure
High97 °F (Jul 23, 2:51 PM)94% (Jul 25, 5:56 PM)30.23 "Hg (Jul 25, 5:56 PM)
Low66 °F (Jul 20, 5:51 AM)24% (Jul 24, 3:51 PM)29.78 "Hg (Jul 22, 6:51 PM)
Average81 °F59%29.99 "Hg
* Reported Jul 11 10:51 AM — Jul 26 10:51 AM, Elizabeth, Weather by CustomWeather, © 2016

Note: Actual official high and low records may vary slightly from our data, if they occured in-between our weather recording intervals... More about our weather records

Advertising

Elizabeth Weather History for the Previous 24 Hours

Scroll right to see more
 ConditionsComfort  
Time TempWeatherWind HumidityBarometerVisibility
10:51 AM
Tue, Jul 26
86 °FScattered clouds.10 mph53%29.91 "Hg10 mi
9:51 AM84 °FScattered clouds.12 mph59%29.91 "Hg10 mi
8:51 AM80 °FScattered clouds.10 mph69%29.91 "Hg10 mi
7:51 AM77 °FPartly sunny.10 mph77%29.91 "Hg10 mi
6:51 AM74 °FScattered clouds.7 mph85%29.90 "Hg10 mi
5:51 AM72 °FPassing clouds.6 mph87%29.88 "Hg10 mi
4:51 AM73 °FClear.7 mph88%29.87 "Hg10 mi
3:51 AM74 °FClear.9 mph85%29.86 "Hg10 mi
2:51 AM74 °FPassing clouds.10 mph88%29.86 "Hg10 mi
1:51 AM74 °FPassing clouds.9 mph91%29.86 "Hg10 mi
12:51 AM75 °FPartly cloudy.9 mph90%29.87 "Hg10 mi
11:51 PM
Mon, Jul 25
75 °FPassing clouds.15 mph90%29.88 "Hg9 mi
10:51 PM75 °FPartly cloudy.10 mph94%29.88 "Hg8 mi
9:51 PM76 °FOvercast.5 mph94%29.87 "Hg10 mi
8:51 PM76 °FMore clouds than sun.7 mph94%29.87 "Hg10 mi
7:51 PM77 °FLight rain. Fog.3 mph90%29.87 "Hg4 mi
6:51 PM75 °FLight rain. Cloudy.3 mph94%29.90 "Hg10 mi
5:56 PM75 °FStrong thunderstorms. Fog.16 mph94%29.95 "Hg0 mi
4:51 PM86 °FThunderstorms. Broken clouds.21 mph59%29.80 "Hg10 mi
3:51 PM97 °FBroken clouds.8 mph42%29.80 "Hg10 mi
2:51 PM96 °FBroken clouds.8 mph41%29.84 "Hg10 mi
1:51 PM95 °FPartly sunny.10 mph43%29.87 "Hg10 mi
12:51 PM92 °FPartly sunny.3 mph49%29.88 "Hg10 mi
Weather by CustomWeather, © 2016

See weather overviewHow to use our weather pages